Location: Sebastopol
(38.4021°N, 122.8239°W)
Time: 15:16:54
(UTC+00:00)

H-2A R/B - Pass Details

Date: 29 October 2020
Orbit: 528 x 653 km, 98.3° (Epoch: 30 November)

Event Time Altitude Azimuth Distance (km) Brightness Sun altitude
Rises 13:34:44 0° 20° (NNE) 2,915 6.2 -12.4°
Reaches altitude 10° 13:37:05 10° 28° (NNE) 1,985 5.4 -11.9°
Maximum altitude 13:41:09 41° 99° (E) 879 4.0 -11.1°
Drops below altitude 10° 13:45:04 10° 170° (S) 1,899 5.3 -10.4°
Sets 13:47:15 0° 177° (S) 2,772 6.1 -10.0°
